Overview Statistics Trail Chart Weather Telemetry Raw packets
 

This is the latest recevied weather packets stored in our database for station/object KI5NXU. If no packets are shown the sender has not sent any weather packets the latest 10 day(s).

<< 79 80 81 82 83 84 85 >>
Time Temp. Humidity Pressure Rain* Wind** Luminosity Snow
1787804415 30.56° C 56% 1015.2 hPa 0 mm - 0 W/m² -
1787804109 30.56° C 55% 1015 hPa 0 mm - 0 W/m² -
1787803804 31.11° C 55% 1015.2 hPa 0 mm - 0 W/m² -
1787803503 31.11° C 54% 1015.1 hPa 0 mm - 0 W/m² -
1787803201 31.11° C 54% 1014.8 hPa 0 mm - 0 W/m² -
1787802898 31.11° C 54% 1015 hPa 0 mm - 0 W/m² -
1787802595 31.11° C 54% 1015.1 hPa 0 mm - 0 W/m² -
1787802295 31.67° C 53% 1014.9 hPa 0 mm - 0 W/m² -
1787801990 32.22° C 52% 1015 hPa 0 mm - 0 W/m² -
1787801685 31.67° C 51% 1014.8 hPa 0 mm - 0 W/m² -
1787801385 31.67° C 51% 1015 hPa 0 mm - 0 W/m² -
1787801078 31.67° C 51% 1014.8 hPa 0 mm - 0 W/m² -
1787800773 31.67° C 51% 1014.6 hPa 0 mm - 0 W/m² -
1787800468 31.67° C 52% 1014.6 hPa 0 mm - 0 W/m² -
1787800164 31.67° C 51% 1014.7 hPa 0 mm - 0 W/m² -
1787799862 32.22° C 51% 1014.7 hPa 0 mm - 0 W/m² -
1787799560 32.22° C 51% 1014.6 hPa 0 mm - 0 W/m² -
1787799260 31.67° C 52% 1014.5 hPa 0 mm - 0 W/m² -
1787798959 31.67° C 53% 1014.6 hPa 0 mm - 0 W/m² -
1787798653 32.22° C 53% 1014.7 hPa 0 mm - 0 W/m² -
1787798349 32.78° C 53% 1014.5 hPa 0 mm - 0 W/m² -
1787798049 32.78° C 51% 1014.3 hPa 0 mm - 0 W/m² -
1787797742 32.22° C 51% 1014.3 hPa 0 mm - 0 W/m² -
1787797437 32.22° C 51% 1014.3 hPa 0 mm - 0 W/m² -
1787797133 32.78° C 51% 1014.2 hPa 0 mm - 0 W/m² -

* Rain latest hour (hover to see other rain measurements)
** Current wind speed in m/s (hover to see current wind gust speed)